| time (UTC) | temp F | wind direction | speed knots | gust knots | rain 1hr in | rain 24hr in | rain mn in | humidity % | barometer mb |
| 20260906193023 | 49 | 229 | 3.5 | 6.1 | 0.00 | 0.00 | 0.00 | 82 | 1024.4 |
| 20260906192512 | 49 | 206 | 1.7 | 2.6 | 0.00 | 0.00 | 0.00 | 82 | 1024.4 |
| 20260906192010 | 49 | 206 | 0.0 | 2.6 | 0.00 | 0.00 | 0.00 | 81 | 1024.4 |
| 20260906191529 | 49 | 206 | 0.9 | 2.6 | 0.00 | 0.00 | 0.00 | 81 | 1024.3 |
| 20260906191014 | 49 | 206 | 0.0 | 0.9 | 0.00 | 0.00 | 0.00 | 81 | 1024.3 |
| 20260906190515 | 49 | 206 | 0.0 | 0.9 | 0.00 | 0.00 | 0.00 | 81 | 1024.3 |
| 20260906190029 | 49 | 202 | 0.0 | 1.7 | 0.00 | 0.00 | 0.00 | 81 | 1024.2 |
| 20260906185512 | 49 | 201 | 0.0 | 1.7 | 0.00 | 0.00 | 0.00 | 81 | 1024.2 |
| 20260906185020 | 49 | 203 | 0.0 | 4.3 | 0.00 | 0.00 | 0.00 | 81 | 1024.1 |
| 20260906184529 | 49 | 203 | 0.0 | 4.3 | 0.00 | 0.00 | 0.00 | 81 | 1024.3 |
| 20260906184011 | 49 | 180 | 0.0 | 2.6 | 0.00 | 0.00 | 0.00 | 81 | 1024.3 |
| 20260906183511 | 49 | 153 | 0.9 | 2.6 | 0.00 | 0.00 | 0.00 | 81 | 1024.2 |
| 20260906183019 | 49 | 189 | 0.9 | 2.6 | 0.00 | 0.00 | 0.00 | 81 | 1024.1 |
| 20260906182514 | 49 | 189 | 0.9 | 2.6 | 0.00 | 0.00 | 0.00 | 81 | 1023.9 |
| 20260906182016 | 49 | 189 | 0.9 | 2.6 | 0.00 | 0.00 | 0.00 | 81 | 1024.0 |
| 20260906181537 | 49 | 189 | 0.0 | 3.5 | 0.00 | 0.00 | 0.00 | 81 | 1023.9 |
| 20260906181013 | 49 | 189 | 1.7 | 3.5 | 0.00 | 0.00 | 0.00 | 81 | 1024.0 |
| 20260906180517 | 49 | 185 | 1.7 | 3.5 | 0.00 | 0.00 | 0.00 | 81 | 1024.0 |
| 20260906180047 | 49 | 185 | 0.9 | 2.6 | 0.00 | 0.00 | 0.00 | 80 | 1023.9 |
| 20260906175511 | 49 | 185 | 1.7 | 3.5 | 0.00 | 0.00 | 0.00 | 80 | 1023.8 |
| 20260906175016 | 49 | 180 | 1.7 | 4.3 | 0.00 | 0.00 | 0.00 | 80 | 1023.8 |
| 20260906174531 | 49 | 163 | 2.6 | 5.2 | 0.00 | 0.00 | 0.00 | 80 | 1023.8 |
| 20260906174024 | 50 | 160 | 3.5 | 7.0 | 0.00 | 0.00 | 0.00 | 80 | 1023.7 |
| 20260906173516 | 50 | 193 | 3.5 | 7.8 | 0.00 | 0.00 | 0.00 | 80 | 1023.8 |
| 20260906173027 | 50 | 185 | 3.5 | 7.8 | 0.00 | 0.00 | 0.00 | 80 | 1023.8 |
| 20260906172517 | 50 | 170 | 3.5 | 7.8 | 0.00 | 0.00 | 0.00 | 79 | 1023.7 |
| 20260906172017 | 50 | 185 | 2.6 | 6.1 | 0.00 | 0.00 | 0.00 | 79 | 1023.7 |
| 20260906171520 | 50 | 175 | 1.7 | 7.0 | 0.00 | 0.00 | 0.00 | 79 | 1023.7 |
| 20260906171013 | 50 | 185 | 4.3 | 7.0 | 0.00 | 0.00 | 0.00 | 79 | 1023.8 |
| 20260906170516 | 50 | 196 | 3.5 | 7.0 | 0.00 | 0.00 | 0.00 | 78 | 1023.8 |
| 20260906170005 | 50 | 162 | 3.5 | 7.0 | 0.00 | 0.00 | 0.00 | 78 | 1023.7 |
| 20260906165504 | 50 | 196 | 2.6 | 4.3 | 0.00 | 0.00 | 0.00 | 78 | 1023.9 |
| 20260906165003 | 50 | 209 | 2.6 | 3.5 | 0.00 | 0.00 | 0.00 | 78 | 1023.8 |
| 20260906164508 | 50 | 233 | 0.9 | 5.2 | 0.00 | 0.00 | 0.00 | 77 | 1023.7 |
| 20260906164004 | 50 | 175 | 0.0 | 5.2 | 0.00 | 0.00 | 0.00 | 76 | 1023.7 |
| 20260906163503 | 50 | 256 | 0.0 | 0.0 | 0.00 | 0.00 | 0.00 | 77 | 1023.8 |
| 20260906163011 | 50 | 256 | 0.0 | 0.9 | 0.00 | 0.00 | 0.00 | 77 | 1023.8 |
| 20260906162505 | 50 | 256 | 0.0 | 1.7 | 0.00 | 0.00 | 0.00 | 77 | 1023.8 |
| 20260906162007 | 50 | 256 | 0.0 | 1.7 | 0.00 | 0.00 | 0.00 | 78 | 1023.9 |
| 20260906161512 | 50 | 256 | 0.9 | 1.7 | 0.00 | 0.00 | 0.00 | 78 | 1023.9 |
| 20260906161004 | 50 | 256 | 0.0 | 1.7 | 0.00 | 0.00 | 0.00 | 79 | 1024.0 |
| 20260906160504 | 50 | 256 | 0.9 | 1.7 | 0.00 | 0.00 | 0.00 | 79 | 1024.0 |
| 20260906160006 | 50 | 239 | 0.0 | 0.0 | 0.00 | 0.00 | 0.00 | 80 | 1024.1 |
| 20260906155506 | 50 | 239 | 0.0 | 0.0 | 0.00 | 0.00 | 0.00 | 79 | 1024.1 |
| 20260906155004 | 50 | 239 | 0.0 | 0.0 | 0.00 | 0.00 | 0.00 | 79 | 1024.1 |
| 20260906154505 | 50 | 239 | 0.0 | 0.0 | 0.00 | 0.00 | 0.00 | 79 | 1024.1 |
| 20260906154004 | 50 | 239 | 0.0 | 1.7 | 0.00 | 0.00 | 0.00 | 79 | 1024.2 |
| 20260906153506 | 50 | 239 | 0.0 | 3.5 | 0.00 | 0.00 | 0.00 | 79 | 1024.2 |
| 20260906153005 | 50 | 239 | 0.9 | 3.5 | 0.00 | 0.00 | 0.00 | 79 | 1024.3 |
| 20260906152507 | 51 | 235 | 0.9 | 2.6 | 0.00 | 0.00 | 0.00 | 78 | 1024.3 |
| 20260906152008 | 51 | 212 | 1.7 | 2.6 | 0.00 | 0.00 | 0.00 | 78 | 1024.2 |
| 20260906151514 | 51 | 185 | 0.9 | 2.6 | 0.00 | 0.00 | 0.00 | 79 | 1024.1 |
| 20260906151015 | 51 | 152 | 0.9 | 1.7 | 0.00 | 0.00 | 0.00 | 78 | 1024.1 |
| 20260906150504 | 51 | 152 | 0.0 | 1.7 | 0.00 | 0.00 | 0.00 | 78 | 1024.1 |
| 20260906150024 | 51 | 152 | 0.0 | 1.7 | 0.00 | 0.00 | 0.00 | 78 | 1024.1 |
| 20260906145507 | 51 | 152 | 0.9 | 1.7 | 0.00 | 0.00 | 0.00 | 78 | 1024.0 |
| 20260906145003 | 51 | 152 | 0.0 | 3.5 | 0.00 | 0.00 | 0.00 | 78 | 1024.0 |
| 20260906144504 | 51 | 152 | 1.7 | 3.5 | 0.00 | 0.00 | 0.00 | 78 | 1023.9 |
| 20260906144004 | 51 | 142 | 1.7 | 3.5 | 0.00 | 0.00 | 0.00 | 78 | 1023.8 |
| 20260906143505 | 51 | 139 | 1.7 | 3.5 | 0.00 | 0.00 | 0.00 | 79 | 1023.8 |
| 20260906143005 | 51 | 137 | 1.7 | 3.5 | 0.00 | 0.00 | 0.00 | 79 | 1023.9 |
| 20260906142504 | 51 | 137 | 1.7 | 3.5 | 0.00 | 0.00 | 0.00 | 79 | 1023.8 |
| 20260906142008 | 51 | 134 | 1.7 | 3.5 | 0.00 | 0.00 | 0.00 | 79 | 1023.8 |
| 20260906141513 | 51 | 141 | 0.9 | 3.5 | 0.00 | 0.00 | 0.00 | 78 | 1023.7 |
| 20260906141007 | 51 | 147 | 0.9 | 4.3 | 0.00 | 0.00 | 0.00 | 78 | 1023.7 |
| 20260906140512 | 51 | 140 | 1.7 | 4.3 | 0.00 | 0.00 | 0.00 | 78 | 1023.7 |
| 20260906140006 | 51 | 158 | 1.7 | 7.0 | 0.00 | 0.00 | 0.00 | 78 | 1023.7 |
| 20260906135510 | 51 | 189 | 2.6 | 7.0 | 0.00 | 0.00 | 0.00 | 78 | 1023.7 |
| 20260906135008 | 51 | 175 | 4.3 | 7.0 | 0.00 | 0.00 | 0.00 | 78 | 1023.8 |
| 20260906134505 | 51 | 127 | 2.6 | 6.1 | 0.00 | 0.00 | 0.00 | 78 | 1023.8 |
| 20260906134011 | 51 | 147 | 2.6 | 5.2 | 0.00 | 0.00 | 0.00 | 78 | 1023.9 |
| 20260906133504 | 51 | 143 | 1.7 | 5.2 | 0.00 | 0.00 | 0.00 | 79 | 1023.9 |
| 20260906133007 | 51 | 162 | 2.6 | 7.0 | 0.00 | 0.00 | 0.00 | 79 | 1023.9 |
| 20260906132504 | 51 | 138 | 3.5 | 7.0 | 0.00 | 0.00 | 0.00 | 79 | 1024.0 |
| 20260906132003 | 51 | 135 | 2.6 | 5.2 | 0.00 | 0.00 | 0.00 | 79 | 1024.0 |
| 20260906131507 | 51 | 141 | 2.6 | 4.3 | 0.00 | 0.00 | 0.00 | 80 | 1024.0 |
| 20260906131005 | 51 | 137 | 1.7 | 4.3 | 0.00 | 0.00 | 0.00 | 80 | 1024.0 |
| 20260906130506 | 51 | 156 | 1.7 | 6.1 | 0.00 | 0.00 | 0.00 | 80 | 1024.1 |
| 20260906130022 | 51 | 149 | 2.6 | 6.1 | 0.00 | 0.00 | 0.00 | 80 | 1024.0 |
| 20260906125508 | 51 | 123 | 3.5 | 5.2 | 0.00 | 0.00 | 0.00 | 80 | 1024.1 |
| 20260906125009 | 51 | 126 | 2.6 | 4.3 | 0.00 | 0.00 | 0.00 | 81 | 1024.1 |
| 20260906124515 | 51 | 127 | 2.6 | 6.1 | 0.00 | 0.00 | 0.00 | 81 | 1024.1 |
| 20260906124005 | 51 | 126 | 3.5 | 6.1 | 0.00 | 0.00 | 0.00 | 81 | 1024.1 |
| 20260906123516 | 51 | 139 | 2.6 | 6.1 | 0.00 | 0.00 | 0.00 | 81 | 1024.2 |
| 20260906123010 | 51 | 130 | 2.6 | 5.2 | 0.00 | 0.00 | 0.00 | 80 | 1024.1 |
| 20260906122517 | 51 | 146 | 2.6 | 7.8 | 0.00 | 0.00 | 0.00 | 80 | 1024.2 |
| 20260906122015 | 51 | 149 | 3.5 | 7.8 | 0.00 | 0.00 | 0.00 | 80 | 1024.3 |
| 20260906121507 | 51 | 172 | 3.5 | 5.2 | 0.00 | 0.00 | 0.00 | 79 | 1024.4 |
| 20260906121003 | 51 | 180 | 3.5 | 7.0 | 0.00 | 0.00 | 0.00 | 79 | 1024.4 |
| 20260906120512 | 51 | 166 | 3.5 | 7.0 | 0.00 | 0.00 | 0.00 | 78 | 1024.4 |
| 20260906120006 | 52 | 158 | 3.5 | 5.2 | 0.00 | 0.00 | 0.00 | 77 | 1024.4 |
| 20260906115507 | 52 | 165 | 2.6 | 3.5 | 0.00 | 0.00 | 0.00 | 77 | 1024.4 |
| 20260906115007 | 52 | 180 | 1.7 | 4.3 | 0.00 | 0.00 | 0.00 | 76 | 1024.5 |
| 20260906114531 | 52 | 168 | 1.7 | 4.3 | 0.00 | 0.00 | 0.00 | 76 | 1024.5 |
| 20260906114009 | 52 | 169 | 1.7 | 4.3 | 0.00 | 0.00 | 0.00 | 75 | 1024.5 |
| 20260906113509 | 52 | 180 | 1.7 | 3.5 | 0.00 | 0.00 | 0.00 | 74 | 1024.5 |
| 20260906113021 | 52 | 171 | 1.7 | 3.5 | 0.00 | 0.00 | 0.00 | 74 | 1024.4 |
| 20260906112512 | 52 | 185 | 1.7 | 3.5 | 0.00 | 0.00 | 0.00 | 74 | 1024.4 |
| 20260906112004 | 52 | 185 | 0.9 | 3.5 | 0.00 | 0.00 | 0.00 | 74 | 1024.4 |
| 20260906111524 | 53 | 171 | 1.7 | 3.5 | 0.00 | 0.00 | 0.00 | 74 | 1024.2 |
| 20260906111009 | 53 | 185 | 1.7 | 3.5 | 0.00 | 0.00 | 0.00 | 73 | 1024.2 |
| 20260906110516 | 53 | 180 | 1.7 | 3.5 | 0.00 | 0.00 | 0.00 | 73 | 1024.2 |
| 20260906110020 | 53 | 162 | 0.9 | 2.6 | 0.00 | 0.00 | 0.00 | 74 | 1024.1 |
| 20260906105506 | 53 | 162 | 1.7 | 2.6 | 0.00 | 0.00 | 0.00 | 74 | 1024.2 |
| 20260906105009 | 53 | 162 | 1.7 | 2.6 | 0.00 | 0.00 | 0.00 | 73 | 1024.2 |
| 20260906104517 | 53 | 162 | 0.9 | 2.6 | 0.00 | 0.00 | 0.00 | 73 | 1024.3 |
| 20260906104010 | 53 | 162 | 0.9 | 1.7 | 0.00 | 0.00 | 0.00 | 73 | 1024.2 |
| 20260906103510 | 53 | 162 | 0.0 | 2.6 | 0.00 | 0.00 | 0.00 | 73 | 1024.1 |
| 20260906103015 | 53 | 162 | 0.9 | 2.6 | 0.00 | 0.00 | 0.00 | 73 | 1024.1 |
| 20260906102510 | 53 | 162 | 0.9 | 2.6 | 0.00 | 0.00 | 0.00 | 73 | 1023.9 |
| 20260906102015 | 53 | 158 | 0.9 | 2.6 | 0.00 | 0.00 | 0.00 | 73 | 1023.9 |
| 20260906101518 | 53 | 158 | 1.7 | 3.5 | 0.00 | 0.00 | 0.00 | 73 | 1023.9 |
| 20260906101016 | 53 | 160 | 1.7 | 3.5 | 0.00 | 0.00 | 0.00 | 74 | 1024.0 |
| 20260906100515 | 53 | 159 | 1.7 | 3.5 | 0.00 | 0.00 | 0.00 | 74 | 1023.9 |
| 20260906100037 | 53 | 163 | 1.7 | 3.5 | 0.00 | 0.00 | 0.00 | 74 | 1023.9 |
| 20260906095516 | 53 | 185 | 1.7 | 3.5 | 0.00 | 0.00 | 0.00 | 75 | 1023.8 |
| 20260906095011 | 53 | 185 | 1.7 | 2.6 | 0.00 | 0.00 | 0.00 | 75 | 1023.8 |
| 20260906094533 | 53 | 185 | 0.9 | 2.6 | 0.00 | 0.00 | 0.00 | 75 | 1023.8 |
| 20260906094014 | 53 | 185 | 0.9 | 4.3 | 0.00 | 0.00 | 0.00 | 75 | 1023.8 |
| 20260906093510 | 53 | 185 | 1.7 | 4.3 | 0.00 | 0.00 | 0.00 | 74 | 1023.7 |
| 20260906093014 | 53 | 190 | 2.6 | 6.1 | 0.00 | 0.00 | 0.00 | 75 | 1023.7 |
| 20260906092512 | 53 | 215 | 2.6 | 7.8 | 0.00 | 0.00 | 0.00 | 75 | 1023.7 |
| 20260906092015 | 54 | 189 | 4.3 | 7.8 | 0.00 | 0.00 | 0.00 | 75 | 1023.6 |
| 20260906091525 | 54 | 185 | 3.5 | 7.8 | 0.00 | 0.00 | 0.00 | 76 | 1023.6 |
| 20260906091012 | 54 | 165 | 4.3 | 7.0 | 0.00 | 0.00 | 0.00 | 75 | 1023.6 |
| 20260906090512 | 54 | 189 | 3.5 | 7.0 | 0.00 | 0.00 | 0.00 | 75 | 1023.5 |
| 20260906090025 | 54 | 193 | 2.6 | 7.0 | 0.00 | 0.00 | 0.00 | 75 | 1023.5 |
| 20260906085518 | 54 | 164 | 3.5 | 7.0 | 0.00 | 0.00 | 0.00 | 75 | 1023.4 |
| 20260906085017 | 54 | 156 | 4.3 | 7.0 | 0.00 | 0.00 | 0.00 | 74 | 1023.5 |
| 20260906084520 | 54 | 151 | 3.5 | 7.0 | 0.00 | 0.00 | 0.00 | 74 | 1023.4 |
| 20260906084022 | 54 | 193 | 2.6 | 7.0 | 0.00 | 0.00 | 0.00 | 74 | 1023.3 |
| 20260906083513 | 54 | 203 | 3.5 | 8.7 | 0.00 | 0.00 | 0.00 | 73 | 1023.2 |
| 20260906083014 | 54 | 194 | 4.3 | 8.7 | 0.00 | 0.00 | 0.00 | 72 | 1023.1 |
| 20260906082514 | 54 | 191 | 1.7 | 3.5 | 0.00 | 0.00 | 0.00 | 72 | 1023.1 |
| 20260906082014 | 55 | 191 | 0.9 | 3.5 | 0.00 | 0.00 | 0.00 | 72 | 1023.0 |
| 20260906081518 | 55 | 191 | 1.7 | 5.2 | 0.00 | 0.00 | 0.00 | 71 | 1023.0 |
| 20260906081011 | 55 | 191 | 2.6 | 5.2 | 0.00 | 0.00 | 0.00 | 70 | 1022.9 |
| 20260906080516 | 55 | 191 | 2.6 | 5.2 | 0.00 | 0.00 | 0.00 | 69 | 1022.8 |
| 20260906080005 | 55 | 216 | 1.7 | 4.3 | 0.00 | 0.00 | 0.00 | 69 | 1022.7 |
| 20260906075504 | 55 | 170 | 0.9 | 4.3 | 0.00 | 0.00 | 0.00 | 68 | 1022.6 |
| 20260906075002 | 55 | 170 | 1.7 | 5.2 | 0.00 | 0.00 | 0.00 | 67 | 1022.6 |
| 20260906074509 | 55 | 158 | 3.5 | 5.2 | 0.00 | 0.00 | 0.00 | 67 | 1022.4 |
| 20260906074003 | 55 | 157 | 1.7 | 3.5 | 0.00 | 0.00 | 0.00 | 68 | 1022.4 |
| 20260906073503 | 55 | 152 | 1.7 | 3.5 | 0.00 | 0.00 | 0.00 | 68 | 1022.4 |
| 20260906073005 | 55 | 161 | 1.7 | 3.5 | 0.00 | 0.00 | 0.00 | 68 | 1022.4 |
| 20260906072504 | 56 | 159 | 1.7 | 4.3 | 0.00 | 0.00 | 0.00 | 68 | 1022.3 |
| 20260906072009 | 56 | 158 | 2.6 | 5.2 | 0.00 | 0.00 | 0.00 | 68 | 1022.3 |
| 20260906071503 | 56 | 156 | 2.6 | 5.2 | 0.00 | 0.00 | 0.00 | 68 | 1022.3 |
| 20260906071003 | 56 | 156 | 3.5 | 5.2 | 0.00 | 0.00 | 0.00 | 68 | 1022.2 |
| 20260906070503 | 56 | 189 | 2.6 | 5.2 | 0.00 | 0.00 | 0.00 | 68 | 1022.1 |
| 20260906070004 | 56 | 157 | 3.5 | 7.0 | 0.00 | 0.00 | 0.00 | 68 | 1022.0 |
| 20260906065509 | 56 | 192 | 4.3 | 7.0 | 0.00 | 0.00 | 0.00 | 66 | 1022.0 |
| 20260906065003 | 57 | 195 | 1.7 | 7.8 | 0.00 | 0.00 | 0.00 | 64 | 1022.0 |
| 20260906064504 | 57 | 156 | 5.2 | 7.8 | 0.00 | 0.00 | 0.00 | 63 | 1022.0 |
| 20260906064005 | 57 | 158 | 2.6 | 7.8 | 0.00 | 0.00 | 0.00 | 64 | 1021.9 |
| 20260906063507 | 57 | 156 | 3.5 | 8.7 | 0.00 | 0.00 | 0.00 | 65 | 1021.9 |
| 20260906063003 | 57 | 203 | 5.2 | 8.7 | 0.00 | 0.00 | 0.00 | 66 | 1021.8 |
| 20260906062503 | 57 | 131 | 2.6 | 6.1 | 0.00 | 0.00 | 0.00 | 64 | 1021.8 |
| 20260906062005 | 57 | 122 | 2.6 | 4.3 | 0.00 | 0.00 | 0.00 | 66 | 1021.7 |
| 20260906061511 | 57 | 139 | 1.7 | 6.1 | 0.00 | 0.00 | 0.00 | 65 | 1021.7 |
| 20260906061005 | 57 | 162 | 2.6 | 6.1 | 0.00 | 0.00 | 0.00 | 66 | 1021.7 |
| 20260906060503 | 57 | 189 | 2.6 | 4.3 | 0.00 | 0.00 | 0.00 | 67 | 1021.9 |
| 20260906060016 | 57 | 223 | 2.6 | 4.3 | 0.00 | 0.00 | 0.00 | 65 | 1021.9 |
| 20260906055504 | 57 | 175 | 0.9 | 4.3 | 0.00 | 0.00 | 0.00 | 66 | 1022.0 |
| 20260906055004 | 57 | 168 | 1.7 | 4.3 | 0.00 | 0.00 | 0.00 | 67 | 1021.8 |
| 20260906054503 | 57 | 232 | 0.0 | 1.7 | 0.00 | 0.00 | 0.00 | 66 | 1021.8 |
| 20260906054003 | 57 | 232 | 0.0 | 2.6 | 0.00 | 0.00 | 0.00 | 65 | 1021.8 |
| 20260906053505 | 57 | 233 | 0.9 | 3.5 | 0.00 | 0.00 | 0.00 | 67 | 1021.8 |
| 20260906053005 | 57 | 197 | 1.7 | 5.2 | 0.00 | 0.00 | 0.00 | 67 | 1021.8 |
| 20260906052503 | 57 | 203 | 1.7 | 6.1 | 0.00 | 0.00 | 0.00 | 64 | 1021.9 |
| 20260906052007 | 57 | 160 | 4.3 | 7.0 | 0.00 | 0.00 | 0.00 | 65 | 1021.8 |
| 20260906051504 | 58 | 213 | 2.6 | 7.0 | 0.00 | 0.00 | 0.00 | 65 | 1021.8 |
| 20260906051013 | 57 | 228 | 1.7 | 7.0 | 0.00 | 0.00 | 0.00 | 65 | 1021.7 |
| 20260906050509 | 57 | 203 | 2.6 | 8.7 | 0.00 | 0.00 | 0.00 | 66 | 1021.6 |
| 20260906050006 | 57 | 237 | 3.5 | 8.7 | 0.00 | 0.00 | 0.00 | 68 | 1021.7 |
| 20260906045512 | 57 | 244 | 3.5 | 8.7 | 0.00 | 0.00 | 0.00 | 67 | 1021.7 |
| 20260906045004 | 57 | 225 | 2.6 | 6.1 | 0.00 | 0.00 | 0.00 | 67 | 1021.7 |
| 20260906044504 | 56 | 230 | 0.9 | 7.8 | 0.00 | 0.00 | 0.00 | 66 | 1021.6 |
| 20260906044006 | 56 | 261 | 3.5 | 7.8 | 0.00 | 0.00 | 0.00 | 65 | 1021.5 |
| 20260906043503 | 57 | 251 | 4.3 | 7.0 | 0.00 | 0.00 | 0.00 | 65 | 1021.4 |
| 20260906043013 | 57 | 229 | 3.5 | 6.1 | 0.00 | 0.00 | 0.00 | 64 | 1021.5 |
| 20260906042504 | 58 | 301 | 2.6 | 5.2 | 0.00 | 0.00 | 0.00 | 65 | 1021.5 |
| 20260906042004 | 58 | 306 | 1.7 | 5.2 | 0.00 | 0.00 | 0.00 | 67 | 1021.6 |
| 20260906041504 | 57 | 314 | 2.6 | 4.3 | 0.00 | 0.00 | 0.00 | 66 | 1021.6 |
| 20260906041003 | 56 | 252 | 1.7 | 4.3 | 0.00 | 0.00 | 0.00 | 67 | 1021.5 |
| 20260906040503 | 56 | 210 | 1.7 | 4.3 | 0.00 | 0.00 | 0.00 | 65 | 1021.4 |
| 20260906040023 | 56 | 239 | 1.7 | 4.3 | 0.00 | 0.00 | 0.00 | 67 | 1021.4 |
| 20260906035504 | 56 | 242 | 0.9 | 6.1 | 0.00 | 0.00 | 0.00 | 67 | 1021.4 |
| 20260906035010 | 56 | 216 | 0.9 | 7.8 | 0.00 | 0.00 | 0.00 | 70 | 1021.5 |
| 20260906034520 | 56 | 206 | 4.3 | 8.7 | 0.00 | 0.00 | 0.00 | 70 | 1021.4 |
| 20260906034014 | 55 | 194 | 3.5 | 9.6 | 0.00 | 0.00 | 0.00 | 72 | 1021.4 |
| 20260906033512 | 56 | 239 | 5.2 | 9.6 | 0.00 | 0.00 | 0.00 | 71 | 1021.5 |
| 20260906033018 | 56 | 251 | 5.2 | 9.6 | 0.00 | 0.00 | 0.00 | 67 | 1021.5 |
| 20260906032515 | 56 | 126 | 1.7 | 8.7 | 0.00 | 0.00 | 0.00 | 66 | 1021.5 |
| 20260906032004 | 56 | 263 | 3.5 | 8.7 | 0.00 | 0.00 | 0.00 | 66 | 1021.6 |
| 20260906031509 | 57 | 244 | 4.3 | 8.7 | 0.00 | 0.00 | 0.00 | 71 | 1021.6 |
| 20260906031003 | 56 | 283 | 3.5 | 7.0 | 0.00 | 0.00 | 0.00 | 73 | 1021.6 |
| 20260906030509 | 55 | 226 | 0.0 | 7.8 | 0.00 | 0.00 | 0.00 | 71 | 1021.6 |
| 20260906030005 | 55 | 233 | 2.6 | 8.7 | 0.00 | 0.00 | 0.00 | 73 | 1021.6 |
| 20260906025512 | 55 | 212 | 4.3 | 9.6 | 0.00 | 0.00 | 0.00 | 74 | 1021.6 |
| 20260906025009 | 55 | 221 | 6.1 | 9.6 | 0.00 | 0.00 | 0.00 | 71 | 1021.6 |
| 20260906024509 | 56 | 191 | 4.3 | 9.6 | 0.00 | 0.00 | 0.00 | 68 | 1021.6 |
| 20260906024014 | 56 | 219 | 5.2 | 8.7 | 0.00 | 0.00 | 0.00 | 70 | 1021.7 |
| 20260906023505 | 55 | 244 | 2.6 | 7.8 | 0.00 | 0.00 | 0.00 | 68 | 1021.8 |
| 20260906023023 | 55 | 261 | 5.2 | 7.8 | 0.00 | 0.00 | 0.00 | 69 | 1021.9 |
| 20260906022507 | 55 | 235 | 3.5 | 8.7 | 0.00 | 0.00 | 0.00 | 71 | 1021.9 |
| 20260906022004 | 55 | 226 | 4.3 | 8.7 | 0.00 | 0.00 | 0.00 | 70 | 1021.9 |
| 20260906021522 | 55 | 232 | 4.3 | 10.4 | 0.00 | 0.00 | 0.00 | 71 | 1021.9 |
| 20260906021007 | 55 | 260 | 6.1 | 10.4 | 0.00 | 0.00 | 0.00 | 69 | 1022.0 |
| 20260906020719 | 55 | 247 | 4.3 | 9.6 | 0.00 | 0.00 | 0.00 | 71 | 1022.1 |
| 20260906015519 | 55 | 258 | 4.3 | 9.6 | 0.00 | 0.00 | 0.00 | 71 | 1022.1 |
| 20260906015006 | 55 | 256 | 4.3 | 8.7 | 0.00 | 0.00 | 0.00 | 70 | 1022.1 |
| 20260906014511 | 55 | 211 | 4.3 | 7.8 | 0.00 | 0.00 | 0.00 | 69 | 1022.1 |
| 20260906014010 | 55 | 168 | 0.9 | 10.4 | 0.00 | 0.00 | 0.00 | 70 | 1022.1 |
| 20260906013510 | 55 | 214 | 7.0 | 10.4 | 0.00 | 0.00 | 0.00 | 70 | 1022.2 |
| 20260906013009 | 55 | 171 | 2.6 | 8.7 | 0.00 | 0.00 | 0.00 | 71 | 1022.2 |
| 20260906012515 | 54 | 214 | 4.3 | 9.6 | 0.00 | 0.00 | 0.00 | 69 | 1022.3 |
| 20260906012012 | 54 | 200 | 5.2 | 9.6 | 0.00 | 0.00 | 0.00 | 73 | 1022.2 |
| 20260906011621 | 54 | 244 | 4.3 | 8.7 | 0.00 | 0.00 | 0.00 | 75 | 1022.2 |
| 20260906011605 | 54 | 237 | 4.3 | 10.4 | 0.00 | 0.00 | 0.00 | 76 | 1022.1 |
| 20260906005514 | 53 | 212 | 5.2 | 10.4 | 0.00 | 0.00 | 0.00 | 79 | 1022.3 |
| 20260906005008 | 53 | 248 | 4.3 | 10.4 | 0.00 | 0.00 | 0.00 | 79 | 1022.3 |
| 20260906004505 | 53 | 224 | 5.2 | 10.4 | 0.00 | 0.00 | 0.00 | 79 | 1022.2 |
| 20260906004009 | 53 | 231 | 5.2 | 12.2 | 0.00 | 0.00 | 0.00 | 81 | 1022.3 |
| 20260906003507 | 53 | 208 | 5.2 | 12.2 | 0.00 | 0.00 | 0.00 | 81 | 1022.1 |
| 20260906003013 | 52 | 231 | 4.3 | 9.6 | 0.00 | 0.00 | 0.00 | 82 | 1022.1 |
| 20260906002509 | 52 | 241 | 5.2 | 12.2 | 0.00 | 0.00 | 0.00 | 82 | 1022.1 |
| 20260906002008 | 52 | 217 | 6.1 | 12.2 | 0.00 | 0.01 | 0.00 | 82 | 1022.0 |
| 20260906001524 | 52 | 234 | 6.1 | 10.4 | 0.00 | 0.01 | 0.00 | 82 | 1022.0 |
| 20260906001007 | 52 | 221 | 6.1 | 10.4 | 0.00 | 0.01 | 0.00 | 83 | 1021.9 |
| 20260906000514 | 51 | 237 | 6.1 | 10.4 | 0.00 | 0.01 | 0.00 | 82 | 1021.8 |
| 20260906000018 | 51 | 218 | 7.0 | 10.4 | 0.00 | 0.01 | 0.00 | 84 | 1021.8 |
| 20260905235516 | 51 | 210 | 7.0 | 10.4 | 0.00 | 0.01 | 0.00 | 84 | 1021.8 |
| 20260905235016 | 51 | 220 | 6.1 | 10.4 | 0.00 | 0.01 | 0.00 | 85 | 1021.8 |
| 20260905234518 | 51 | 237 | 6.1 | 10.4 | 0.00 | 0.01 | 0.00 | 86 | 1021.8 |
| 20260905234015 | 51 | 239 | 3.5 | 9.6 | 0.00 | 0.01 | 0.00 | 86 | 1021.9 |
| 20260905233514 | 50 | 224 | 4.3 | 10.4 | 0.00 | 0.01 | 0.00 | 86 | 1021.9 |
| 20260905233009 | 50 | 220 | 7.0 | 10.4 | 0.00 | 0.01 | 0.00 | 86 | 1021.9 |
| 20260905232510 | 50 | 218 | 5.2 | 9.6 | 0.00 | 0.01 | 0.00 | 86 | 1021.9 |
| 20260905232008 | 50 | 221 | 3.5 | 9.6 | 0.00 | 0.01 | 0.00 | 86 | 1021.9 |
| 20260905231537 | 50 | 249 | 6.1 | 9.6 | 0.00 | 0.01 | 0.00 | 86 | 1021.7 |
| 20260905231012 | 50 | 226 | 5.2 | 7.8 | 0.00 | 0.01 | 0.00 | 86 | 1021.7 |
| 20260905230507 | 50 | 232 | 3.5 | 7.8 | 0.00 | 0.01 | 0.00 | 86 | 1021.7 |
| 20260905230022 | 49 | 216 | 5.2 | 7.8 | 0.00 | 0.01 | 0.00 | 86 | 1021.6 |
| 20260905225514 | 49 | 224 | 3.5 | 8.7 | 0.00 | 0.01 | 0.00 | 86 | 1021.5 |
| 20260905225011 | 49 | 194 | 4.3 | 8.7 | 0.00 | 0.01 | 0.00 | 86 | 1021.4 |
| 20260905224600 | 49 | 212 | 3.5 | 8.7 | 0.00 | 0.02 | 0.00 | 86 | 1021.3 |
| 20260905224010 | 49 | 223 | 4.3 | 7.8 | 0.00 | 0.02 | 0.00 | 86 | 1021.2 |
| 20260905223518 | 49 | 204 | 4.3 | 7.0 | 0.00 | 0.02 | 0.00 | 86 | 1021.1 |
| 20260905223027 | 49 | 233 | 4.3 | 7.8 | 0.00 | 0.02 | 0.00 | 86 | 1021.0 |
| 20260905222509 | 49 | 225 | 5.2 | 7.8 | 0.00 | 0.02 | 0.00 | 86 | 1020.8 |
| 20260905222016 | 49 | 223 | 3.5 | 8.7 | 0.00 | 0.02 | 0.00 | 86 | 1020.8 |
| 20260905221528 | 49 | 207 | 4.3 | 8.7 | 0.00 | 0.02 | 0.00 | 86 | 1020.8 |
| 20260905221019 | 49 | 220 | 4.3 | 8.7 | 0.00 | 0.02 | 0.00 | 86 | 1020.8 |
| 20260905220510 | 48 | 195 | 3.5 | 7.8 | 0.00 | 0.02 | 0.00 | 86 | 1020.7 |
| 20260905220018 | 48 | 233 | 3.5 | 7.0 | 0.00 | 0.02 | 0.00 | 86 | 1020.7 |
| 20260905215517 | 48 | 228 | 3.5 | 7.8 | 0.00 | 0.02 | 0.00 | 86 | 1020.7 |
| 20260905215016 | 48 | 228 | 3.5 | 8.7 | 0.00 | 0.02 | 0.00 | 86 | 1020.4 |
| 20260905214515 | 48 | 224 | 6.1 | 10.4 | 0.00 | 0.02 | 0.00 | 86 | 1020.3 |
| 20260905214015 | 48 | 222 | 5.2 | 10.4 | 0.00 | 0.02 | 0.00 | 86 | 1020.3 |
| 20260905213514 | 48 | 236 | 5.2 | 11.3 | 0.00 | 0.02 | 0.00 | 86 | 1020.3 |
| 20260905213032 | 48 | 249 | 5.2 | 11.3 | 0.00 | 0.03 | 0.00 | 85 | 1020.2 |
| 20260905212517 | 48 | 208 | 5.2 | 13.0 | 0.00 | 0.03 | 0.00 | 85 | 1020.1 |
| 20260905212014 | 48 | 241 | 7.0 | 13.0 | 0.00 | 0.03 | 0.00 | 85 | 1020.1 |
| 20260905211542 | 48 | 234 | 6.1 | 13.9 | 0.00 | 0.03 | 0.00 | 85 | 1020.0 |
| 20260905211013 | 48 | 224 | 8.7 | 13.9 | 0.00 | 0.03 | 0.00 | 85 | 1019.9 |
| 20260905210511 | 48 | 226 | 7.0 | 13.0 | 0.00 | 0.03 | 0.00 | 86 | 1019.6 |
| 20260905210042 | 48 | 216 | 6.1 | 11.3 | 0.00 | 0.03 | 0.00 | 86 | 1019.5 |
| 20260905205516 | 48 | 239 | 4.3 | 8.7 | 0.00 | 0.03 | 0.00 | 86 | 1019.3 |
| 20260905205019 | 48 | 202 | 3.5 | 8.7 | 0.00 | 0.03 | 0.00 | 86 | 1019.2 |
| 20260905204518 | 48 | 220 | 4.3 | 8.7 | 0.00 | 0.03 | 0.00 | 86 | 1019.1 |
| 20260905204015 | 48 | 206 | 5.2 | 8.7 | 0.00 | 0.03 | 0.00 | 86 | 1019.1 |
| 20260905203514 | 48 | 195 | 5.2 | 10.4 | 0.00 | 0.03 | 0.00 | 86 | 1018.9 |
| 20260905203027 | 48 | 218 | 7.0 | 10.4 | 0.00 | 0.03 | 0.00 | 86 | 1018.7 |
| 20260905202520 | 48 | 209 | 6.1 | 8.7 | 0.00 | 0.03 | 0.00 | 85 | 1018.7 |
| 20260905202004 | 48 | 200 | 6.1 | 8.7 | 0.00 | 0.03 | 0.00 | 85 | 1018.6 |
| 20260905201507 | 48 | 196 | 4.3 | 7.8 | 0.00 | 0.03 | 0.00 | 85 | 1018.6 |
| 20260905201006 | 48 | 189 | 6.1 | 9.6 | 0.00 | 0.03 | 0.00 | 85 | 1018.5 |
| 20260905200509 | 48 | 189 | 4.3 | 9.6 | 0.00 | 0.03 | 0.00 | 85 | 1018.4 |
| 20260905200018 | 48 | 199 | 7.0 | 11.3 | 0.00 | 0.03 | 0.00 | 84 | 1018.4 |
| 20260905195506 | 48 | 211 | 6.1 | 12.2 | 0.00 | 0.03 | 0.00 | 84 | 1018.4 |
| 20260905195006 | 48 | 217 | 6.1 | 12.2 | 0.00 | 0.03 | 0.00 | 84 | 1018.4 |
| 20260905194509 | 48 | 209 | 3.5 | 11.3 | 0.00 | 0.03 | 0.00 | 84 | 1018.4 |
| 20260905194008 | 48 | 204 | 6.1 | 11.3 | 0.00 | 0.03 | 0.00 | 84 | 1018.4 |
| 20260905193507 | 48 | 228 | 7.0 | 11.3 | 0.00 | 0.03 | 0.00 | 84 | 1018.3 |